• Em Portugal
  • Lista de países
  • Para 7 dias
  • Temperatura da água
  • Mapas de satélite
  • Mapa do tempo
  • Widgets de tempo
  • user-avatar
    Iniciar Sessão

    Previsão horária em Maun

    Hoje, 23 Novembro, Quinta-feira

    Tempo Temperatura Precipitação Vento Pressão Humidade
    00:00 +28°C° 0 mm 1 m/s 679 mmHg 46%
    01:00 +28°C° 0 mm 1 m/s 679 mmHg 47%
    02:00 +28°C° 0 mm 1 m/s 679 mmHg 48%
    03:00 +27°C° 0,1 mm 1 m/s 679 mmHg 50%
    04:00 +27°C° 0,1 mm 1 m/s 679 mmHg 51%
    05:00 +26°C° 0,1 mm 1 m/s 679 mmHg 52%
    06:00 +28°C° 0,1 mm 1 m/s 680 mmHg 49%
    07:00 +29°C° 0,1 mm 1 m/s 680 mmHg 45%
    08:00 +31°C° 0 mm 1 m/s 681 mmHg 40%
    09:00 +32°C° 0 mm 2 m/s 681 mmHg 35%
    10:00 +34°C° 0 mm 2 m/s 681 mmHg 31%
    11:00 +36°C° 0 mm 3 m/s 682 mmHg 26%
    12:00 +36°C° 0 mm 3 m/s 681 mmHg 24%
    13:00 +37°C° 0 mm 2 m/s 681 mmHg 23%
    14:00 +38°C° 0 mm 2 m/s 680 mmHg 21%
    15:00 +38°C° 0 mm 2 m/s 680 mmHg 21%
    16:00 +38°C° 0 mm 2 m/s 679 mmHg 21%
    17:00 +36°C° 0 mm 1 m/s 679 mmHg 21%
    18:00 +36°C° 0,1 mm 2 m/s 679 mmHg 23%
    19:00 +35°C° 0,1 mm 2 m/s 679 mmHg 25%
    20:00 +34°C° 0,1 mm 2 m/s 679 mmHg 28%
    21:00 +32°C° 0,1 mm 1 m/s 679 mmHg 29%
    22:00 +31°C° 0,1 mm 1 m/s 680 mmHg 30%
    23:00 +30°C° 0,1 mm 1 m/s 680 mmHg 32%

    Amanhã, 24 Novembro, Sexta-feira

    Tempo Temperatura Precipitação Vento Pressão Humidade
    00:00 +30°C° 0 mm 1 m/s 680 mmHg 33%
    01:00 +29°C° 0 mm 2 m/s 679 mmHg 35%
    02:00 +28°C° 0 mm 2 m/s 679 mmHg 36%
    03:00 +28°C° 0 mm 2 m/s 679 mmHg 41%
    04:00 +27°C° 0 mm 3 m/s 679 mmHg 46%
    05:00 +27°C° 0 mm 3 m/s 679 mmHg 50%
    06:00 +28°C° 0 mm 4 m/s 680 mmHg 50%
    07:00 +29°C° 0 mm 4 m/s 681 mmHg 49%
    08:00 +29°C° 0 mm 5 m/s 681 mmHg 49%
    09:00 +32°C° 0 mm 5 m/s 681 mmHg 43%
    10:00 +34°C° 0 mm 4 m/s 682 mmHg 38%
    11:00 +36°C° 0 mm 4 m/s 682 mmHg 33%
    12:00 +37°C° 0 mm 3 m/s 681 mmHg 29%
    13:00 +38°C° 0 mm 3 m/s 681 mmHg 26%
    14:00 +39°C° 0 mm 2 m/s 680 mmHg 23%
    15:00 +38°C° 0 mm 2 m/s 679 mmHg 23%
    16:00 +37°C° 0 mm 1 m/s 679 mmHg 23%
    17:00 +36°C° 0 mm 1 m/s 678 mmHg 23%
    18:00 +35°C° 0 mm 1 m/s 678 mmHg 26%
    19:00 +34°C° 0 mm 1 m/s 678 mmHg 28%
    20:00 +33°C° 0 mm 1 m/s 678 mmHg 30%
    21:00 +32°C° 0 mm 1 m/s 679 mmHg 32%
    22:00 +31°C° 0 mm 1 m/s 679 mmHg 35%
    23:00 +30°C° 0 mm 1 m/s 679 mmHg 37%

    Depois de amanhã, 25 Novembro, Sábado

    Tempo Temperatura Precipitação Vento Pressão Humidade
    00:00 +30°C° 0 mm 2 m/s 679 mmHg 41%
    01:00 +29°C° 0 mm 2 m/s 678 mmHg 45%
    02:00 +28°C° 0 mm 3 m/s 678 mmHg 49%
    03:00 +27°C° 0,5 mm 3 m/s 678 mmHg 52%
    04:00 +26°C° 0,5 mm 4 m/s 678 mmHg 56%
    05:00 +25°C° 0,5 mm 4 m/s 678 mmHg 59%
    06:00 +26°C° 0,4 mm 4 m/s 678 mmHg 58%
    07:00 +27°C° 0,4 mm 3 m/s 679 mmHg 56%
    08:00 +27°C° 0,4 mm 3 m/s 680 mmHg 54%
    09:00 +30°C° 0 mm 3 m/s 680 mmHg 47%
    10:00 +32°C° 0 mm 2 m/s 680 mmHg 40%
    11:00 +36°C° 0 mm 2 m/s 680 mmHg 33%
    12:00 +37°C° 0 mm 2 m/s 679 mmHg 30%
    13:00 +38°C° 0 mm 2 m/s 679 mmHg 27%
    14:00 +39°C° 0 mm 2 m/s 678 mmHg 23%
    15:00 +39°C° 0 mm 2 m/s 677 mmHg 23%
    16:00 +38°C° 0 mm 2 m/s 677 mmHg 23%
    17:00 +38°C° 0 mm 2 m/s 676 mmHg 23%
    18:00 +36°C° 0 mm 1 m/s 676 mmHg 25%
    19:00 +35°C° 0 mm 1 m/s 677 mmHg 27%
    20:00 +34°C° 0 mm 1 m/s 677 mmHg 28%
    21:00 +33°C° 0 mm 1 m/s 677 mmHg 30%
    22:00 +33°C° 0 mm 1 m/s 677 mmHg 32%
    23:00 +32°C° 0 mm 2 m/s 678 mmHg 34%

    26 Novembro, Domingo

    Tempo Temperatura Precipitação Vento Pressão Humidade
    00:00 +31°C° 0,1 mm 2 m/s 677 mmHg 35%
    01:00 +30°C° 0,1 mm 2 m/s 677 mmHg 36%
    02:00 +30°C° 0,1 mm 2 m/s 677 mmHg 37%
    03:00 +29°C° 0,3 mm 2 m/s 677 mmHg 41%
    04:00 +27°C° 0,3 mm 2 m/s 677 mmHg 44%
    05:00 +26°C° 0,3 mm 2 m/s 677 mmHg 48%
    06:00 +28°C° 0 mm 2 m/s 678 mmHg 46%
    07:00 +29°C° 0 mm 2 m/s 679 mmHg 45%
    08:00 +30°C° 0 mm 2 m/s 680 mmHg 43%
    09:00 +32°C° 0 mm 2 m/s 680 mmHg 36%
    10:00 +36°C° 0 mm 2 m/s 680 mmHg 29%
    11:00 +38°C° 0 mm 2 m/s 681 mmHg 23%
    12:00 +39°C° 0 mm 2 m/s 680 mmHg 20%
    13:00 +40°C° 0 mm 2 m/s 679 mmHg 17%
    14:00 +41°C° 0 mm 2 m/s 678 mmHg 14%
    15:00 +40°C° 0 mm 3 m/s 678 mmHg 13%
    16:00 +40°C° 0 mm 3 m/s 678 mmHg 12%
    17:00 +40°C° 0 mm 3 m/s 677 mmHg 12%
    18:00 +38°C° 0 mm 2 m/s 678 mmHg 14%
    19:00 +36°C° 0 mm 2 m/s 678 mmHg 17%
    20:00 +35°C° 0 mm 2 m/s 678 mmHg 20%
    21:00 +34°C° 0 mm 2 m/s 678 mmHg 24%
    22:00 +32°C° 0 mm 2 m/s 678 mmHg 28%
    23:00 +31°C° 0 mm 2 m/s 678 mmHg 31%

    27 Novembro, Segunda-feira

    Tempo Temperatura Precipitação Vento Pressão Humidade
    00:00 +30°C° 0 mm 2 m/s 678 mmHg 36%
    01:00 +29°C° 0 mm 2 m/s 678 mmHg 40%
    02:00 +28°C° 0 mm 2 m/s 678 mmHg 44%
    03:00 +28°C° 0 mm 2 m/s 678 mmHg 48%
    04:00 +27°C° 0 mm 2 m/s 678 mmHg 52%
    05:00 +27°C° 0 mm 2 m/s 678 mmHg 56%
    06:00 +27°C° 0 mm 2 m/s 679 mmHg 55%
    07:00 +28°C° 0 mm 3 m/s 680 mmHg 54%
    08:00 +29°C° 0 mm 3 m/s 681 mmHg 53%
    09:00 +31°C° 0 mm 3 m/s 681 mmHg 47%
    10:00 +34°C° 0 mm 3 m/s 681 mmHg 41%
    11:00 +36°C° 0 mm 3 m/s 681 mmHg 36%
    12:00 +37°C° 0 mm 2 m/s 680 mmHg 30%
    13:00 +39°C° 0 mm 1 m/s 680 mmHg 24%
    14:00 +41°C° 0 mm 1 m/s 680 mmHg 19%
    15:00 +40°C° 0 mm 1 m/s 679 mmHg 20%
    16:00 +39°C° 0 mm 1 m/s 679 mmHg 21%
    17:00 +36°C° 0 mm 1 m/s 678 mmHg 22%
    18:00 +36°C° 0 mm 2 m/s 679 mmHg 24%
    19:00 +35°C° 0 mm 2 m/s 679 mmHg 27%
    20:00 +34°C° 0 mm 3 m/s 679 mmHg 30%
    21:00 +33°C° 0 mm 3 m/s 679 mmHg 35%
    22:00 +32°C° 0 mm 4 m/s 680 mmHg 40%
    23:00 +30°C° 0 mm 4 m/s 680 mmHg 45%

    28 Novembro, Terça-feira

    Tempo Temperatura Precipitação Vento Pressão Humidade
    00:00 +29°C° 0,2 mm 5 m/s 680 mmHg 49%
    01:00 +28°C° 0,2 mm 5 m/s 680 mmHg 54%
    02:00 +27°C° 0,2 mm 5 m/s 679 mmHg 58%
    03:00 +27°C° 0 mm 5 m/s 680 mmHg 60%
    04:00 +26°C° 0 mm 5 m/s 680 mmHg 62%
    05:00 +26°C° 0 mm 4 m/s 680 mmHg 64%
    06:00 +26°C° 0 mm 5 m/s 681 mmHg 62%
    07:00 +27°C° 0 mm 5 m/s 681 mmHg 60%
    08:00 +28°C° 0 mm 5 m/s 682 mmHg 58%
    09:00 +29°C° 0 mm 5 m/s 682 mmHg 52%
    10:00 +32°C° 0 mm 4 m/s 682 mmHg 45%
    11:00 +34°C° 0 mm 4 m/s 682 mmHg 39%
    12:00 +35°C° 0 mm 4 m/s 681 mmHg 35%
    13:00 +36°C° 0 mm 3 m/s 681 mmHg 31%
    14:00 +38°C° 0 mm 3 m/s 680 mmHg 27%
    15:00 +37°C° 0 mm 3 m/s 680 mmHg 26%
    16:00 +37°C° 0 mm 2 m/s 679 mmHg 25%
    17:00 +37°C° 0 mm 2 m/s 679 mmHg 24%
    18:00 +36°C° 0 mm 2 m/s 679 mmHg 26%
    19:00 +35°C° 0 mm 2 m/s 680 mmHg 28%
    20:00 +34°C° 0 mm 2 m/s 680 mmHg 30%
    21:00 +32°C° 0 mm 2 m/s 680 mmHg 31%
    22:00 +31°C° 0 mm 2 m/s 680 mmHg 33%
    23:00 +31°C° 0 mm 3 m/s 680 mmHg 34%
    Mostrar mais